Wetbulb
53.58 53.37 53.45 53.58 53.67 53.53 53.53 53.48 52.99 53.13 53.54 53.61 53.84 53.70 53.71 53.46 52.65 52.79 52.32 52.60 52.96 53.01 53.11 53.40 55.55 57.20 53.13 48.74 47.76 54.29 60.14 57.87 58.66 54.87 50.61 49.71 47.33 44.09 38.95 41.13 42.09 39.11 41.02 41.63 41.56 41.75 40.57
53.15 53.27 53.04 53.04 53.25 53.37 53.38 53.25 53.07 53.01 53.26 53.12 53.72 53.57 53.52 53.62 53.23 52.39 52.36 52.65 52.81 53.16 52.80 53.45 55.49 57.05 50.43 42.75 52.42 53.87 54.06 55.24 56.16 52.99 49.91 49.57 47.73 47.63 41.50 39.17 39.24 40.78 40.08 39.35 41.20 40.28 40.06
53.12 53.20 53.15 53.18 53.05 52.98 52.96 52.81 52.67 52.76 52.96 53.02 53.31 52.91 52.23 52.73 52.56 52.38 52.47 53.26 53.17 52.83 52.91 53.87 55.26 54.92 49.33 45.20 52.44 52.98 53.33 54.57 55.47 52.87 49.23 50.57 51.28 47.49 42.52 38.01 40.27 39.35 36.68 38.11 38.75 39.53 38.45
52.74 52.80 52.87 52.67 52.67 52.70 52.68 52.41 52.42 52.55 52.80 52.81 52.47 52.40 52.38 52.57 52.51 52.57 52.93 53.93 53.63 53.67 53.81 54.17 55.68 54.03 44.38 52.90 52.76 52.85 52.34 53.42 55.02 54.23 53.07 52.37 52.31 48.53 41.78 40.85 39.43 35.82 35.16 31.43 37.21 38.71 38.44
52.32 52.49 52.47 52.44 52.41 52.45 52.40 52.16 52.16 52.20 52.39 52.46 52.40 52.48 52.15 52.39 52.67 52.63 53.42 53.88 54.43 54.83 55.49 55.22 53.29 50.07 41.81 54.07 49.46 51.04 51.99 52.15 52.32 52.33 52.57 54.12 50.14 44.80 41.08 35.43 32.46 32.08 26.72 28.87 33.77 38.61 36.58
52.08 51.98 52.05 51.88 51.96 52.03 52.16 51.91 51.86 51.84 52.01 51.87 51.96 52.10 52.38 53.56 53.21 53.64 53.94 54.03 54.53 54.68 55.44 55.45 54.19 45.48 45.48 44.82 47.19 50.40 51.18 54.00 50.74 48.39 45.88 45.29 45.12 38.05 37.85 35.46 28.33 27.45 27.00 29.53 31.01 35.38 35.54
51.46 51.53 51.47 51.53 51.56 51.59 51.74 51.50 51.49 51.49 51.56 51.38 51.25 51.40 52.05 53.31 53.58 53.58 50.81 48.20 44.02 44.13 50.39 45.76 44.19 43.20 46.24 48.82 50.58 48.94 52.01 50.29 46.85 42.68 36.74 40.76 39.07 35.65 36.52 37.00 34.56 34.23 31.18 30.19 31.76 35.99 33.79
50.80 51.13 51.10 50.99 51.05 51.14 51.23 51.07 51.15 51.04 51.08 51.01 50.77 50.76 51.48 52.44 53.46 53.74 48.41 44.64 44.97 46.27 39.55 45.22 46.14 47.07 49.17 48.85 43.97 47.01 51.54 45.44 42.32 36.20 38.29 35.77 35.14 38.13 38.83 37.33 35.58 33.62 31.27 29.97 31.68 35.64 33.52
50.32 50.50 50.62 50.59 50.59 50.62 50.64 50.51 50.63 50.64 50.56 50.54 50.31 50.20 50.75 51.78 52.81 47.71 45.80 46.01 49.25 49.63 39.03 40.79 44.46 43.92 46.41 47.28 43.01 43.35 48.50 46.36 40.53 37.21 37.07 32.78 35.41 40.28 37.78 35.37 33.93 32.13 30.22 28.80 30.54 32.93 33.41
49.91 49.69 49.98 50.10 50.11 50.02 50.02 49.93 50.10 50.08 49.87 49.81 49.85 49.82 50.14 51.45 46.65 44.57 43.76 47.93 48.50 49.78 32.05 35.09 41.58 45.33 46.77 46.40 41.08 47.31 48.94 45.20 40.73 37.27 37.85 37.52 40.06 38.22 36.11 34.90 35.00 30.94 35.05 33.82 31.50 30.06 25.51
49.34 49.25 49.42 49.57 49.56 49.42 49.48 49.44 49.71 49.63 49.38 49.50 49.43 49.32 49.55 50.43 43.07 42.79 46.07 47.77 48.00 46.47 18.56 37.74 41.67 49.51 46.87 42.01 41.63 42.48 48.19 44.57 38.03 38.03 38.39 34.25 35.59 34.72 34.51 36.23 36.36 33.87 37.00 34.45 31.80 29.25 25.58
48.59 48.83 48.72 48.67 48.99 48.79 48.96 48.92 49.21 49.17 49.06 49.00 48.92 48.85 49.09 46.91 44.65 46.00 47.62 47.53 46.47 32.29 21.33 36.17 41.01 40.80 40.38 41.95 41.58 43.98 43.55 45.58 43.68 38.73 37.39 36.62 40.43 38.70 37.48 38.25 39.95 37.58 35.80 33.76 30.44 27.54 24.12
48.04 48.43 48.00 48.02 48.51 48.23 48.37 48.33 48.62 48.77 48.59 48.60 48.44 48.62 46.73 48.31 41.97 47.51 47.48 44.64 30.17 25.63 35.65 33.96 35.48 39.42 38.58 36.66 38.66 39.93 39.22 37.67 34.96 31.71 31.09 33.47 34.96 38.05 38.96 33.68 36.90 36.81 32.66 26.10 22.94 22.29 21.21
47.63 47.78 47.81 47.88 48.14 47.95 47.95 47.93 48.20 48.24 48.28 48.09 48.01 48.09 46.64 47.26 47.58 46.87 46.06 37.85 25.04 30.28 32.38 37.91 36.49 37.11 34.92 36.68 36.05 37.15 35.51 34.03 37.29 36.14 33.36 28.30 26.60 34.43 37.15 36.09 31.48 32.91 32.82 26.74 19.12 19.95 21.85
47.14 47.31 47.30 47.54 47.29 47.47 47.47 47.60 47.77 47.62 47.72 48.46 46.53 40.87 43.50 46.27 47.72 46.60 40.88 30.30 27.97 31.48 35.89 34.37 34.50 30.13 30.08 34.92 34.74 33.98 34.20 33.36 35.88 37.15 32.00 31.51 29.49 35.98 37.31 39.02 37.96 33.20 29.76 34.72 28.22 27.59 22.50
46.75 46.65 46.69 46.97 46.80 46.89 47.14 47.27 47.17 47.25 47.31 47.20 36.96 39.13 41.67 47.37 47.98 44.67 38.18 30.98 32.01 37.30 37.46 36.05 29.34 31.40 26.63 30.00 30.94 32.61 33.14 35.19 36.66 38.64 39.99 35.18 29.39 34.87 36.41 38.58 38.02 35.85 36.09 28.94 30.16 21.80 20.97
45.81 46.09 46.35 46.40 46.12 46.28 46.19 46.74 46.67 47.05 46.82 45.23 34.57 32.24 41.45 48.89 47.76 38.80 30.60 31.24 34.20 38.38 38.05 34.12 31.82 30.46 29.76 28.99 30.95 29.85 30.29 34.50 37.07 36.58 37.80 34.74 31.70 27.90 34.77 32.25 32.08 33.26 31.07 32.50 32.65 30.05 23.27
45.19 45.50 45.70 45.67 45.52 45.54 45.55 46.18 46.17 46.61 46.29 37.84 29.92 24.91 41.59 46.31 34.40 34.93 31.48 34.74 38.57 36.38 37.71 36.02 34.97 33.20 30.13 29.76 27.04 29.43 29.44 32.64 35.99 35.57 31.04 34.67 29.71 22.69 25.23 32.78 36.80 35.02 32.88 32.79 27.16 25.30 27.30
44.81 45.19 45.22 45.40 45.02 44.88 45.16 45.57 45.63 46.21 45.44 32.83 24.26 26.56 38.26 42.91 27.50 28.22 31.61 32.89 33.88 34.04 34.15 33.47 32.23 33.84 32.92 29.90 26.12 28.72 30.55 35.42 35.89 34.90 32.58 33.14 28.20 19.41 18.97 28.22 34.51 31.78 32.48 31.80 30.51 28.10 24.57
44.86 44.86 44.72 44.87 44.67 44.47 44.73 44.83 45.01 45.50 44.76 32.24 26.26 22.21 27.45 36.14 35.08 29.47 28.16 28.31 28.35 33.05 32.82 33.95 32.35 32.00 29.91 27.74 29.82 26.21 27.96 33.07 34.65 35.33 37.32 34.71 24.74 23.09 18.66 21.85 24.40 22.78 25.61 28.68 27.63 21.66 23.05
43.74 43.81 44.29 44.19 44.23 43.97 44.63 44.50 44.29 44.49 43.40 31.09 24.58 21.50 22.88 20.70 23.17 23.86 24.60 25.96 25.74 25.55 31.18 32.65 29.59 28.81 26.37 23.05 24.46 24.56 26.03 25.32 29.48 34.13 32.19 28.26 20.34 21.87 24.39 25.66 25.58 24.01 24.15 24.24 19.95 22.78 20.44
42.82 43.34 43.45 43.74 43.46 43.36 43.80 43.71 43.77 43.84 41.03 27.31 22.05 21.34 23.51 20.14 22.45 20.85 24.06 22.44 24.43 26.41 26.21 25.78 24.64 24.16 25.09 22.23 23.89 21.71 22.76 21.94 22.09 26.36 26.09 22.72 18.51 21.59 16.33 22.47 22.67 20.18 19.39 19.19 20.99 21.57 24.54
42.67 42.68 43.41 43.21 42.72 43.11 43.14 42.98 43.32 43.43 38.21 26.21 26.56 25.67 23.48 23.25 20.62 18.94 18.48 21.63 23.97 24.97 26.87 26.81 24.66 22.29 21.48 23.79 24.83 25.00 24.70 24.26 24.09 22.70 21.71 23.86 19.41 15.44 10.33 14.85 13.67 2.54 13.75 18.95 19.75 22.11 23.04
41.94 42.99 42.86 42.33 42.18 42.66 42.50 42.65 42.76 42.79 38.50 29.00 27.17 25.37 21.99 19.26 19.86 21.35 21.69 22.87 22.72 22.94 21.71 25.16 25.48 22.14 24.82 27.64 26.57 25.10 23.46 22.85 22.69 22.24 24.03 13.35 14.25 10.04 9.46 5.95 0.49 11.40 11.74 14.33 17.02 15.91 12.66
41.75 42.22 41.71 41.40 42.10 42.43 42.07 42.16 42.33 42.11 41.25 31.74 29.13 26.04 23.12 17.72 21.21 20.93 21.38 21.01 21.43 22.76 21.45 22.35 24.30 25.30 26.08 23.60 19.09 15.90 15.63 16.39 17.40 20.14 19.65 21.08 10.29 -1.08 -2.80 0.19 3.87 11.21 10.82 10.40 10.86 11.28 3.80
42.17 41.59 40.64 40.91 41.18 41.50 41.76 41.82 42.00 41.83 41.55 32.79 29.75 29.15 25.18 20.36 17.88 21.79 19.48 19.12 16.90 16.78 18.69 21.99 25.74 25.78 24.44 21.74 18.26 3.93 4.97 10.84 8.75 13.29 20.48 18.71 16.56 9.71 -0.70 -2.44 -8.21 5.03 1.90 -4.05 0.89 3.20 0.50
42.65 41.07 40.03 40.46 40.96 41.76 42.22 42.24 41.70 41.65 41.29 33.53 30.62 29.77 27.55 22.50 21.94 20.07 18.36 18.22 20.86 18.73 16.87 19.43 20.27 20.69 23.25 18.21 13.63 7.46 4.58 13.54 3.52 4.99 6.50 8.97 8.78 8.85 7.95 6.40 6.37 -2.88 -5.21 -1.55 6.83 5.59 0.32
42.24 40.81 40.02 39.89 40.70 41.68 42.21 42.26 42.25 41.29 40.91 34.93 30.43 31.26 30.93 25.23 22.86 23.42 23.87 19.97 20.66 19.64 16.17 18.27 17.73 17.85 17.55 14.49 13.78 10.22 7.37 9.37 7.41 7.35 4.87 8.68 6.53 -0.81 2.14 6.48 5.39 2.28 4.03 9.74 3.08 -5.94 -5.00
41.94 41.16 40.24 40.30 40.62 41.36 42.38 42.47 41.51 41.20 40.73 36.62 28.17 33.38 31.72 27.18 23.31 25.95 25.43 25.21 23.86 23.22 22.58 19.76 17.10 16.50 19.35 13.46 9.66 7.22 1.41 -0.72 -3.83 -2.21 11.72 2.96 10.18 9.41 10.61 10.91 4.52 5.23 4.65 0.93 1.43 3.12 -2.25
MSLP
1022.90 1022.69 1022.41 1022.12 1021.77 1021.44 1021.11 1020.67 1020.19 1019.68 1019.31 1019.02 1018.74 1018.36 1018.00 1017.65 1017.32 1017.03 1016.80 1016.54 1016.25 1015.95 1015.73 1015.55 1015.22 1015.09 1014.78 1014.42 1013.41 1012.06 1011.91 1012.00 1012.38 1013.01 1013.45 1013.72 1014.13 1014.33 1014.41 1014.70 1014.97 1015.16 1016.14 1016.72 1017.02 1017.49 1017.69
1023.12 1022.93 1022.65 1022.24 1021.84 1021.43 1021.06 1020.67 1020.25 1019.92 1019.46 1019.09 1018.71 1018.36 1017.91 1017.45 1017.11 1016.79 1016.55 1016.31 1016.18 1015.97 1015.84 1015.55 1015.22 1015.07 1014.92 1014.24 1012.49 1012.30 1012.20 1012.24 1012.45 1013.02 1013.38 1013.66 1013.86 1014.01 1014.29 1014.74 1015.04 1015.38 1016.57 1017.14 1017.48 1017.67 1018.11
1023.33 1023.05 1022.79 1022.40 1022.00 1021.58 1021.08 1020.73 1020.35 1019.97 1019.46 1018.97 1018.72 1018.29 1017.73 1017.27 1016.70 1016.33 1016.03 1015.76 1015.65 1015.67 1015.67 1015.48 1015.20 1014.98 1014.61 1013.39 1012.29 1012.37 1012.27 1012.38 1012.41 1012.78 1013.34 1013.56 1013.73 1014.17 1014.36 1014.89 1015.44 1015.93 1016.89 1017.55 1017.77 1018.01 1018.46
1023.46 1023.14 1022.80 1022.53 1022.11 1021.73 1021.36 1020.95 1020.47 1020.00 1019.48 1019.00 1018.53 1018.06 1017.61 1017.06 1016.71 1016.33 1015.83 1015.51 1015.38 1015.36 1015.35 1015.29 1015.15 1015.00 1014.07 1012.36 1012.22 1012.31 1012.18 1012.36 1012.52 1012.85 1013.24 1013.52 1014.01 1014.32 1014.67 1015.02 1015.64 1016.40 1017.15 1017.60 1017.43 1017.79 1018.52
1023.66 1023.23 1022.92 1022.61 1022.27 1021.86 1021.42 1021.00 1020.55 1020.03 1019.55 1019.03 1018.57 1018.13 1017.55 1017.00 1016.68 1016.24 1015.74 1015.23 1014.89 1014.85 1014.90 1014.94 1015.13 1015.02 1013.58 1012.13 1012.07 1011.84 1012.04 1012.45 1012.81 1013.11 1013.21 1013.53 1014.07 1014.74 1014.97 1015.26 1016.08 1016.56 1017.05 1017.32 1017.56 1017.68 1018.28
1023.82 1023.49 1023.06 1022.72 1022.29 1021.88 1021.50 1021.10 1020.62 1020.06 1019.55 1019.11 1018.65 1018.10 1017.52 1016.90 1016.57 1016.23 1015.63 1015.06 1014.69 1014.59 1014.66 1014.75 1014.63 1015.12 1013.25 1012.18 1011.69 1011.73 1011.90 1012.34 1013.01 1013.44 1013.72 1013.73 1014.14 1014.79 1015.03 1015.12 1015.47 1016.39 1016.70 1016.90 1017.25 1017.75 1018.39
1023.87 1023.50 1023.14 1022.81 1022.44 1022.06 1021.55 1021.16 1020.72 1020.19 1019.62 1019.12 1018.65 1018.14 1017.57 1016.96 1016.29 1015.81 1015.74 1015.34 1015.47 1015.10 1014.52 1013.54 1013.56 1013.28 1012.42 1012.06 1011.78 1011.69 1011.87 1012.35 1012.98 1013.71 1014.02 1013.93 1014.21 1014.14 1014.75 1015.05 1015.12 1015.52 1016.30 1016.61 1016.71 1017.16 1018.07
1023.91 1023.56 1023.17 1022.85 1022.47 1022.08 1021.68 1021.28 1020.80 1020.31 1019.73 1019.18 1018.73 1018.14 1017.47 1016.87 1016.44 1015.95 1015.75 1015.89 1015.92 1016.05 1014.81 1013.24 1013.01 1012.93 1012.40 1012.07 1011.82 1011.65 1011.67 1012.52 1013.06 1013.76 1014.11 1014.53 1013.79 1013.75 1014.27 1014.57 1015.03 1015.45 1015.76 1016.23 1016.61 1017.07 1017.87
1023.91 1023.56 1023.35 1022.89 1022.54 1022.20 1021.74 1021.23 1020.67 1020.16 1019.65 1019.14 1018.62 1018.08 1017.50 1016.89 1016.22 1016.17 1016.38 1016.16 1015.84 1015.71 1015.30 1012.83 1012.11 1011.80 1011.69 1011.92 1011.75 1011.41 1011.57 1012.06 1012.91 1013.62 1013.86 1014.00 1013.68 1013.70 1014.03 1014.27 1014.81 1015.17 1015.62 1016.09 1016.47 1017.09 1017.78
1023.92 1023.61 1023.14 1023.02 1022.68 1022.26 1021.85 1021.27 1020.68 1020.14 1019.61 1019.05 1018.52 1018.03 1017.53 1016.86 1016.51 1016.45 1016.19 1016.05 1015.89 1015.86 1015.34 1012.49 1011.46 1010.62 1010.82 1011.26 1011.45 1010.98 1011.27 1011.76 1012.58 1013.06 1013.54 1013.63 1013.22 1013.52 1013.63 1013.74 1014.20 1014.30 1014.45 1015.24 1016.11 1017.03 1017.64
1024.14 1023.69 1023.41 1023.01 1022.69 1022.27 1021.81 1021.27 1020.65 1020.11 1019.56 1018.96 1018.42 1017.94 1017.51 1017.13 1017.05 1016.65 1016.17 1015.83 1015.68 1015.92 1014.87 1011.77 1011.03 1010.33 1010.57 1011.21 1011.36 1011.22 1011.18 1011.70 1012.22 1012.71 1013.23 1012.67 1012.55 1012.87 1013.07 1012.91 1013.61 1013.15 1013.82 1014.66 1015.62 1016.40 1016.78
1024.23 1023.93 1023.61 1023.21 1022.65 1022.28 1021.86 1021.30 1020.59 1019.95 1019.38 1018.81 1018.23 1017.77 1017.38 1017.25 1017.19 1016.31 1015.92 1015.90 1015.92 1015.91 1013.33 1011.67 1011.08 1011.02 1011.50 1011.51 1011.57 1011.57 1011.65 1011.75 1011.94 1012.53 1012.81 1012.52 1012.20 1012.13 1011.85 1012.24 1012.62 1013.18 1013.76 1014.44 1015.19 1015.90 1015.38
1024.24 1023.97 1023.62 1023.30 1022.84 1022.32 1021.74 1021.21 1020.58 1019.88 1019.19 1018.45 1017.78 1017.17 1017.10 1016.91 1016.68 1016.14 1016.08 1016.27 1016.34 1014.86 1012.14 1012.07 1011.76 1011.73 1011.85 1011.96 1011.93 1011.93 1012.21 1012.49 1012.44 1012.79 1012.64 1012.46 1011.92 1011.47 1011.33 1011.84 1012.15 1012.67 1013.48 1013.96 1014.45 1014.58 1013.15
1024.21 1023.99 1023.69 1023.36 1023.02 1022.54 1021.99 1021.36 1020.61 1019.84 1019.07 1018.22 1017.19 1016.48 1016.31 1016.20 1015.99 1016.04 1016.24 1016.47 1015.90 1013.24 1012.67 1012.22 1012.02 1012.08 1012.23 1012.02 1012.05 1012.12 1012.42 1012.59 1012.67 1012.75 1012.68 1012.56 1011.83 1011.06 1010.34 1010.55 1010.65 1011.23 1012.04 1012.47 1012.51 1012.34 1012.01
1024.28 1024.06 1023.78 1023.35 1023.04 1022.63 1022.12 1021.55 1020.81 1019.91 1018.99 1018.09 1017.03 1016.56 1016.35 1015.64 1015.65 1016.08 1016.39 1016.06 1014.58 1013.63 1012.93 1012.78 1012.38 1012.46 1012.61 1012.46 1012.70 1012.62 1012.70 1012.50 1012.26 1012.44 1012.86 1012.40 1011.60 1010.52 1010.19 1009.52 1010.21 1010.76 1011.16 1011.00 1011.94 1011.60 1011.86
1024.38 1024.11 1023.81 1023.37 1022.95 1022.62 1022.14 1021.49 1020.85 1019.98 1018.92 1018.06 1018.01 1017.20 1016.25 1015.52 1015.54 1016.08 1016.24 1015.40 1014.31 1013.46 1013.00 1013.18 1013.28 1013.14 1013.30 1013.24 1013.35 1013.28 1013.20 1012.66 1012.41 1012.40 1012.34 1012.64 1012.07 1011.51 1010.76 1010.31 1009.95 1010.08 1010.91 1011.54 1011.35 1010.82 1010.29
1024.19 1024.10 1023.73 1023.42 1023.06 1022.58 1022.08 1021.47 1020.80 1019.99 1018.84 1017.82 1018.12 1017.54 1016.22 1015.79 1015.84 1016.31 1016.13 1015.18 1014.14 1013.37 1013.10 1013.34 1013.41 1013.52 1013.76 1014.00 1013.94 1014.02 1013.54 1013.00 1012.90 1013.03 1013.08 1013.34 1013.32 1012.48 1011.69 1011.01 1010.63 1010.42 1010.66 1011.14 1011.22 1010.63 1009.98
1024.13 1023.95 1023.67 1023.31 1023.09 1022.61 1022.25 1021.62 1020.97 1020.15 1019.13 1018.55 1018.88 1018.13 1016.30 1016.10 1016.91 1016.74 1016.30 1015.29 1014.60 1013.62 1013.46 1013.63 1013.53 1013.67 1013.82 1014.10 1014.12 1014.28 1013.89 1013.48 1013.42 1013.57 1013.96 1014.07 1013.90 1013.26 1012.45 1011.47 1011.34 1011.34 1011.49 1011.40 1010.92 1010.38 1009.82
1024.24 1023.89 1023.71 1023.37 1023.27 1022.91 1022.63 1022.01 1021.24 1020.48 1019.77 1020.17 1019.92 1018.83 1016.70 1016.50 1017.18 1017.05 1016.40 1015.84 1015.23 1014.56 1014.30 1014.06 1014.25 1014.32 1014.55 1014.66 1014.78 1014.60 1014.34 1014.21 1014.22 1014.33 1014.58 1015.05 1014.61 1014.08 1013.17 1012.74 1012.25 1012.28 1012.55 1012.72 1012.61 1012.14 1010.94
1024.45 1024.30 1023.94 1023.71 1023.47 1023.13 1022.79 1022.31 1021.51 1020.71 1020.00 1020.20 1020.65 1019.95 1018.30 1017.72 1017.69 1017.64 1017.18 1016.41 1015.67 1015.30 1015.16 1015.12 1014.98 1015.19 1015.33 1015.52 1015.36 1015.41 1015.34 1015.20 1015.26 1015.24 1015.35 1015.70 1015.85 1015.78 1015.24 1014.67 1014.45 1014.19 1013.79 1013.81 1013.75 1013.16 1012.32
1024.18 1024.10 1023.82 1023.58 1023.60 1023.34 1022.99 1022.56 1021.88 1021.05 1020.19 1020.41 1021.06 1021.00 1020.54 1019.34 1018.54 1018.29 1017.95 1017.32 1016.66 1016.38 1015.90 1015.86 1015.93 1016.14 1016.44 1016.59 1016.58 1016.52 1016.44 1016.34 1016.17 1016.08 1016.30 1016.62 1016.66 1016.51 1016.04 1015.84 1015.63 1015.44 1014.99 1014.39 1014.64 1014.21 1013.70
1023.98 1023.85 1023.86 1023.74 1023.62 1023.41 1023.06 1022.65 1022.19 1021.46 1020.64 1021.59 1022.51 1022.74 1021.76 1020.71 1019.62 1019.06 1018.44 1018.00 1017.57 1017.40 1017.89 1017.47 1017.64 1017.90 1017.64 1017.83 1017.82 1017.92 1017.80 1017.67 1017.45 1017.19 1017.25 1017.41 1017.52 1017.40 1017.02 1016.87 1016.65 1016.32 1016.19 1016.01 1015.46 1014.71 1014.09
1024.15 1023.94 1023.97 1024.01 1023.84 1023.52 1023.26 1022.94 1022.51 1022.12 1021.86 1022.78 1023.29 1023.15 1022.71 1021.41 1020.54 1019.97 1019.61 1019.16 1018.88 1018.95 1018.42 1018.51 1018.78 1018.92 1018.64 1018.44 1018.47 1018.40 1018.31 1018.15 1018.00 1017.97 1017.98 1018.47 1018.55 1019.02 1018.42 1018.51 1018.34 1017.70 1017.21 1016.51 1015.84 1015.16 1014.90
1024.18 1024.18 1024.26 1024.29 1024.09 1023.70 1023.51 1023.23 1022.87 1022.54 1022.78 1023.58 1023.86 1023.78 1023.26 1022.13 1021.34 1020.85 1020.33 1019.94 1019.81 1019.86 1019.65 1019.08 1018.93 1019.06 1018.86 1018.74 1018.57 1018.28 1018.09 1017.93 1017.96 1017.66 1017.94 1018.72 1019.55 1020.40 1020.57 1020.76 1019.77 1018.25 1018.01 1018.10 1018.04 1017.27 1017.05
1024.09 1024.23 1024.25 1024.21 1024.06 1023.96 1023.77 1023.53 1023.22 1022.96 1022.82 1023.35 1023.81 1024.15 1023.97 1023.23 1021.91 1021.21 1021.11 1020.75 1020.41 1020.32 1020.17 1019.79 1019.65 1019.80 1019.68 1019.54 1019.27 1018.85 1018.38 1018.36 1017.72 1017.55 1017.88 1018.90 1020.36 1021.54 1022.76 1022.28 1020.39 1020.03 1019.91 1020.62 1020.43 1019.67 1019.81
1023.73 1023.99 1024.14 1024.14 1024.06 1023.99 1023.82 1023.62 1023.46 1023.20 1022.85 1023.14 1023.77 1024.04 1024.10 1024.24 1022.78 1022.04 1021.82 1021.56 1021.62 1021.45 1021.01 1020.50 1020.27 1020.13 1020.14 1020.13 1020.00 1020.21 1020.11 1019.66 1019.38 1018.70 1018.71 1019.46 1020.28 1021.80 1023.26 1023.32 1022.23 1021.41 1022.22 1022.42 1022.86 1022.41 1021.68
1023.50 1023.81 1024.13 1024.02 1024.09 1024.10 1023.88 1023.74 1023.54 1023.32 1023.00 1023.21 1023.82 1024.10 1024.02 1023.97 1023.06 1022.68 1022.58 1022.47 1022.37 1022.35 1022.18 1021.64 1021.52 1021.01 1020.78 1020.91 1021.05 1021.30 1021.38 1021.07 1021.40 1021.27 1020.92 1021.21 1021.49 1022.09 1022.42 1022.56 1022.40 1022.98 1023.90 1024.28 1024.63 1024.63 1023.20
1023.37 1023.77 1023.96 1023.93 1023.89 1023.83 1023.87 1023.78 1023.59 1023.41 1023.03 1023.42 1023.94 1023.97 1024.12 1023.80 1023.19 1022.88 1022.79 1022.71 1022.61 1022.74 1022.78 1022.44 1022.35 1022.36 1022.19 1022.36 1022.57 1022.80 1022.96 1022.87 1023.06 1022.71 1022.47 1022.86 1022.89 1022.83 1022.51 1022.69 1023.10 1023.73 1025.02 1025.47 1025.15 1024.72 1024.48
1023.03 1023.54 1023.73 1023.84 1023.77 1023.55 1023.72 1023.41 1023.46 1023.25 1023.08 1023.34 1023.85 1023.83 1023.87 1024.12 1023.46 1023.14 1022.97 1022.95 1022.85 1022.94 1023.17 1023.17 1023.46 1023.42 1023.49 1023.78 1024.08 1024.34 1024.48 1024.57 1024.36 1024.48 1023.52 1024.07 1023.96 1023.94 1023.90 1023.04 1023.48 1024.34 1024.87 1025.31 1025.78 1025.63 1024.88
Wind_Speed
12 12 14 14 15 15 16 16 17 17 17 17 16 15 14 13 13 12 12 12 11 10 8 8 11 11 4 2 6 4 3 1 8 7 7 4 5 5 6 7 6 5 4 4 3 3 6
12 12 13 14 15 15 17 17 18 17 17 17 16 16 16 15 12 12 11 12 12 11 9 6 9 11 2 4 4 6 5 2 5 7 7 6 6 6 5 3 8 4 7 5 2 2 3
12 13 14 15 15 16 17 17 17 18 18 18 18 18 17 17 13 11 10 10 8 7 8 8 8 3 3 11 2 6 2 3 5 6 5 3 3 3 3 3 4 6 7 2 3 4 2
12 13 14 15 16 17 17 18 18 19 19 19 18 18 18 16 15 13 12 11 9 8 8 8 7 3 6 4 2 6 2 1 3 3 4 6 3 2 0 6 4 5 4 4 4 7 3
12 13 15 15 16 17 17 18 19 19 20 20 20 20 19 16 15 14 13 12 10 8 9 6 3 3 9 7 1 3 5 4 5 3 4 3 6 4 1 5 3 1 4 4 2 7 5
13 14 15 15 16 17 18 18 19 19 20 20 20 20 18 17 15 16 17 10 4 2 3 5 3 1 5 2 2 1 3 8 3 6 4 4 3 4 2 4 9 5 3 4 7 7 3
12 12 14 16 17 17 18 19 19 20 20 20 20 20 19 18 16 16 8 3 4 3 4 7 4 4 1 3 0 1 3 5 4 2 5 4 7 12 8 6 4 7 5 6 2 8 5
11 13 14 16 17 18 18 19 20 20 20 21 21 21 19 19 20 18 2 3 2 2 9 9 11 8 5 3 2 3 5 5 4 5 3 3 14 10 9 7 6 6 7 7 3 5 6
10 12 14 15 16 18 19 19 20 20 20 20 21 21 20 19 19 4 3 1 4 1 5 7 5 5 5 6 4 5 9 5 4 6 7 5 5 9 7 5 7 4 8 5 5 3 3
9 11 12 15 17 18 19 20 20 21 21 21 20 20 19 19 2 3 2 4 5 2 4 5 4 5 5 6 5 6 7 6 4 9 6 7 5 8 5 9 9 13 9 8 7 5 7
10 11 13 15 17 18 19 20 21 21 22 21 21 20 18 10 3 1 2 4 4 1 6 4 3 2 4 7 1 2 3 2 6 6 5 8 6 6 10 14 9 11 8 10 6 8 2
9 11 13 15 16 17 19 20 21 22 22 23 22 21 16 2 1 5 4 4 2 0 8 2 2 3 4 2 2 1 2 2 3 3 4 6 4 6 11 7 13 5 4 3 3 5 14
7 10 12 14 16 17 18 20 22 23 23 24 25 20 7 1 3 2 2 2 1 4 3 2 3 3 3 5 4 6 5 4 6 4 8 3 11 5 5 4 5 8 6 6 6 8 12
8 10 12 14 17 18 20 22 23 24 25 26 25 16 3 4 2 2 2 1 4 1 3 3 3 3 5 5 6 5 3 5 6 4 2 5 6 14 9 20 11 14 17 7 9 10 10
7 10 12 15 16 18 21 22 24 26 27 27 20 3 2 3 6 2 2 3 4 3 2 5 6 2 3 2 3 2 5 5 6 12 8 4 8 2 6 16 16 9 12 22 11 9 3
7 10 11 14 16 18 21 23 25 26 27 27 4 4 3 1 6 3 2 5 4 3 2 2 2 2 3 4 5 2 2 3 2 1 4 2 6 2 6 2 8 19 4 6 8 9 10
6 8 11 13 15 17 20 22 25 27 28 18 3 4 3 1 2 2 4 6 4 4 1 2 2 3 3 3 3 3 4 3 1 2 2 3 3 4 2 5 7 5 14 9 3 5 5
5 7 9 12 14 17 19 22 24 27 28 8 3 3 3 2 1 1 2 3 3 2 0 3 2 6 6 4 3 4 6 4 1 2 1 2 2 5 10 7 6 5 5 5 6 8 6
4 7 9 12 15 17 19 21 24 25 23 2 3 4 4 3 2 2 4 5 3 3 4 1 4 2 1 3 3 3 3 2 3 2 2 2 2 4 7 1 2 1 2 1 3 3 5
5 7 9 12 14 17 18 21 23 25 22 4 3 4 5 3 1 2 3 4 4 3 3 5 4 0 2 3 4 4 2 3 2 1 3 3 3 7 8 8 1 10 4 2 2 4 7
2 5 8 10 13 15 18 21 23 25 21 4 3 2 1 4 2 4 2 5 4 6 5 4 4 3 5 2 4 3 2 5 2 1 1 2 5 5 11 10 9 11 13 14 6 9 10
0 3 7 8 11 13 16 19 22 25 16 5 3 4 5 4 4 4 4 3 4 5 5 6 6 11 5 4 3 4 1 2 5 4 1 1 5 3 6 9 10 16 8 8 12 14 15
1 3 5 8 10 12 14 16 18 20 12 3 2 2 3 5 5 2 1 3 4 4 1 3 2 4 8 7 3 6 6 6 5 4 4 3 3 2 10 3 6 6 10 16 9 9 7
1 3 6 8 8 11 13 14 15 16 9 3 2 1 2 4 2 2 3 2 3 2 6 8 6 5 1 5 7 8 11 14 13 16 12 5 2 1 8 2 11 7 2 2 4 8 6
2 2 4 5 8 9 11 13 14 14 9 3 1 2 1 4 2 3 5 2 6 4 3 4 1 3 5 5 4 5 3 3 6 10 8 11 2 3 3 6 7 10 4 2 5 6 2
5 3 2 3 6 7 8 10 12 13 14 4 1 1 2 1 3 3 4 3 3 4 5 2 3 4 3 3 3 3 4 3 5 8 5 3 4 5 3 4 6 8 1 2 1 6 4
8 4 1 1 4 7 8 9 11 12 14 4 1 1 1 2 3 3 2 2 2 2 3 3 5 5 3 2 2 2 4 2 3 2 3 4 1 9 9 7 7 4 3 2 3 6 3
8 5 3 2 3 7 8 8 10 10 13 4 1 1 1 1 5 2 1 2 2 0 2 4 4 2 3 1 2 2 1 2 2 3 2 3 2 4 2 6 6 5 3 5 2 4 2
9 7 4 4 5 8 10 11 6 9 11 4 1 1 2 1 4 2 3 3 2 2 1 1 1 2 1 1 2 3 3 3 3 4 1 4 4 2 5 4 3 5 3 2 2 4 4
Wind_Direction
21 22 17 12 9 6 3 3 1 1 353 355 350 342 336 333 330 325 317 310 306 303 305 296 308 328 346 260 256 317 304 281 158 147 169 177 152 163 180 182 156 145 146 102 123 136 100
20 21 11 10 7 6 5 3 0 355 353 352 347 343 339 332 327 324 322 312 304 300 295 284 301 323 266 257 226 33 342 133 165 154 170 171 202 201 167 206 170 153 112 128 124 126 117
15 12 11 8 6 4 3 2 358 355 352 352 348 344 339 333 326 316 312 311 305 298 283 288 296 294 267 245 256 345 288 209 179 166 156 196 111 182 137 129 116 119 98 115 170 169 145
14 11 8 7 5 3 1 359 357 354 352 349 348 343 340 332 328 319 307 305 292 274 265 270 277 282 251 252 266 299 238 27 132 138 106 168 97 120 294 126 78 93 85 148 173 154 137
8 10 8 4 4 1 0 358 355 354 351 350 347 344 342 341 333 323 316 305 283 257 245 227 246 211 264 312 261 259 179 161 131 111 206 147 120 195 70 126 88 128 180 191 232 210 136
4 5 5 2 2 360 359 356 353 352 351 349 346 345 342 342 339 335 326 310 255 219 197 205 258 324 274 235 213 304 154 138 145 130 107 185 146 179 170 173 205 183 213 189 195 199 199
360 4 3 1 360 357 357 354 351 350 349 349 345 343 340 336 335 334 347 4 5 289 222 212 178 247 329 296 268 192 143 131 106 129 167 205 188 214 192 202 175 171 195 237 174 170 151
1 0 0 358 357 355 354 354 351 349 347 347 344 341 339 336 332 329 83 73 354 319 300 238 246 244 268 281 296 243 123 151 149 197 158 94 223 200 190 198 196 208 191 221 280 154 178
1 1 355 356 356 354 352 352 349 347 346 345 342 340 335 331 325 7 342 27 347 357 274 281 206 202 185 161 234 240 153 149 174 175 200 194 243 174 178 178 191 217 210 187 206 91 315
349 357 360 355 355 354 350 349 347 345 343 341 339 337 334 332 13 324 287 329 333 337 301 248 214 246 148 138 256 206 188 150 195 206 163 235 223 180 187 211 176 229 175 178 152 146 239
347 353 357 357 354 352 349 348 345 344 340 338 336 333 328 325 279 280 299 327 317 40 323 140 180 122 158 162 254 177 165 90 194 185 161 225 187 177 217 220 175 248 169 195 182 213 176
350 349 359 351 353 351 348 345 343 342 339 336 331 327 325 297 292 254 331 332 54 348 257 218 126 165 120 240 272 78 144 71 176 199 217 233 196 183 226 208 205 152 112 83 102 152 241
346 350 357 354 350 348 347 344 342 340 337 332 326 318 299 244 231 333 344 39 337 216 35 202 218 179 205 205 229 196 182 185 197 201 228 189 231 228 173 222 196 182 177 225 212 210 246
351 350 353 355 350 348 347 344 342 340 336 333 325 318 260 211 234 15 58 85 238 220 274 351 16 181 199 181 245 209 200 236 251 234 183 211 271 208 209 204 189 200 198 218 226 222 240
350 354 1 353 353 349 348 345 345 342 339 335 329 327 271 256 191 107 114 193 250 314 18 346 318 270 282 282 253 197 221 231 226 193 226 244 241 319 222 223 196 205 215 222 268 255 236
354 353 356 353 357 351 350 349 348 345 342 340 326 331 277 123 136 96 175 241 263 277 354 355 288 16 312 334 338 325 213 269 265 274 232 341 275 289 296 286 253 225 154 201 207 231 243
355 350 354 359 352 351 351 350 350 347 344 347 20 0 284 147 69 62 217 228 272 279 20 234 266 294 259 274 220 231 258 284 328 19 11 149 228 270 332 191 227 210 225 219 256 217 246
348 347 353 352 354 351 350 354 353 352 349 33 12 347 294 56 18 274 256 231 311 298 4 291 249 233 219 219 253 249 234 238 40 94 234 247 233 261 243 246 193 172 200 260 257 228 237
327 350 353 360 359 357 354 356 354 355 359 13 358 268 311 86 243 258 287 298 291 304 279 209 261 292 323 236 262 249 283 62 30 350 310 26 264 294 317 350 123 248 88 322 257 248 269
355 357 354 5 2 1 356 357 356 355 353 88 27 336 324 29 353 277 300 268 322 10 300 311 283 172 272 276 257 277 293 22 0 37 203 154 252 237 263 284 217 286 251 238 207 269 315
11 351 1 8 10 2 359 359 358 357 351 87 43 280 201 295 339 329 331 311 309 325 346 215 226 350 340 272 318 284 326 335 323 231 53 179 251 237 251 253 263 268 280 295 262 264 250
244 15 5 11 13 4 5 5 4 6 3 73 43 13 346 291 308 329 348 331 340 9 358 334 4 354 351 290 306 292 319 214 244 327 212 291 264 276 270 257 244 261 253 252 263 270 257
86 20 14 18 12 6 11 10 12 19 28 60 328 317 120 298 337 337 2 16 26 13 215 90 60 327 295 293 281 257 231 239 231 204 220 231 211 217 263 297 326 322 216 234 232 227 229
109 36 32 15 10 8 16 9 20 23 61 115 275 79 33 273 345 348 356 340 0 305 254 270 286 231 271 312 282 260 248 248 246 242 223 205 198 100 272 28 265 251 244 209 238 266 328
158 90 33 20 12 16 16 12 10 12 55 84 330 58 39 285 267 267 353 309 316 295 271 261 315 320 322 297 283 301 292 300 257 242 241 214 186 266 183 222 308 314 287 201 155 280 355
168 149 45 7 26 19 14 11 11 12 16 79 52 136 90 300 271 324 313 343 320 320 319 319 2 318 333 263 264 220 245 279 309 332 60 122 187 170 111 218 227 242 4 110 149 284 248
169 165 167 356 0 346 346 4 10 8 11 90 1 48 108 285 290 21 339 307 335 324 271 305 340 327 357 281 263 232 256 292 264 256 324 332 299 221 234 248 269 228 246 274 117 242 306
176 185 217 280 319 330 346 355 353 0 8 85 254 322 256 250 280 254 245 274 301 183 240 330 329 350 336 287 298 314 266 303 315 232 220 228 237 247 322 221 281 168 132 195 214 304 255
183 198 230 266 296 307 340 322 333 7 0 91 27 277 147 209 250 318 308 360 307 255 225 284 246 270 21 3 359 11 309 353 177 262 257 280 203 253 202 253 202 203 246 286 201 245 279